Time,TemperatureF,DewpointF,PressureIn,WindDirection,WindDirectionDegrees,WindSpeedMPH,WindSpeedGustMPH,Humidity,HourlyPrecipIn,Conditions,Clouds,dailyrainin,SoftwareType,DateUTC
2013-05-04 00:02:00,31.5,9.9,27.52,North,357,3.1,3.6,40,0.00,,---,0.00,VWS V14.01,2013-05-04 05:02:00,
2013-05-04 00:07:00,32.4,10.8,27.52,North,357,4.5,4.9,40,0.00,,---,0.00,VWS V14.01,2013-05-04 05:07:00,
2013-05-04 00:12:00,32.7,11.1,27.52,North,357,4.9,4.9,40,0.00,,---,0.00,VWS V14.01,2013-05-04 05:12:00,
2013-05-04 00:17:00,32.7,11.1,27.52,North,357,3.6,4.0,40,0.00,,---,0.00,VWS V14.01,2013-05-04 05:17:00,
2013-05-04 00:23:00,31.6,10.1,27.52,North,357,3.6,3.6,40,0.00,,---,0.00,VWS V14.01,2013-05-04 05:23:00,
2013-05-04 00:28:00,30.7,9.3,27.52,North,357,3.1,3.1,40,0.00,,---,0.00,VWS V14.01,2013-05-04 05:28:00,
2013-05-04 00:33:00,30.9,9.4,27.52,North,357,4.0,4.0,40,0.00,,---,0.00,VWS V14.01,2013-05-04 05:33:00,
2013-05-04 00:38:00,31.5,9.9,27.52,North,357,4.0,4.0,40,0.00,,---,0.00,VWS V14.01,2013-05-04 05:38:00,
2013-05-04 00:43:00,31.8,10.3,27.52,North,357,3.6,3.6,40,0.00,,---,0.00,VWS V14.01,2013-05-04 05:43:00,
2013-05-04 00:49:00,32.2,10.6,27.52,North,357,4.0,4.0,40,0.00,,---,0.00,VWS V14.01,2013-05-04 05:49:00,
2013-05-04 00:54:00,31.3,9.8,27.52,North,357,2.7,3.6,40,0.00,,---,0.00,VWS V14.01,2013-05-04 05:54:00,
2013-05-04 00:59:00,30.6,9.1,27.52,North,357,3.1,3.1,40,0.00,,---,0.00,VWS V14.01,2013-05-04 05:59:00,
2013-05-04 01:04:00,30.9,9.4,27.52,North,0,3.6,3.6,40,0.00,,---,0.00,VWS V14.01,2013-05-04 06:04:00,
2013-05-04 01:09:00,30.9,9.4,27.52,NNW,346,4.0,4.0,40,0.00,,---,0.00,VWS V14.01,2013-05-04 06:09:00,
2013-05-04 01:14:00,30.7,9.3,27.52,NNW,342,4.0,4.0,40,0.00,,---,0.00,VWS V14.01,2013-05-04 06:14:00,
2013-05-04 01:19:00,30.2,9.4,27.52,North,353,4.0,4.0,41,0.00,,---,0.00,VWS V14.01,2013-05-04 06:19:00,
2013-05-04 01:24:00,30.0,9.2,27.52,NNW,345,3.1,3.1,41,0.00,,---,0.00,VWS V14.01,2013-05-04 06:24:00,
2013-05-04 01:29:00,30.0,9.2,27.52,NNW,345,3.1,3.1,41,0.00,,---,0.00,VWS V14.01,2013-05-04 06:29:00,
2013-05-04 01:34:00,30.0,9.2,27.52,NNW,341,3.1,3.1,41,0.00,,---,0.00,VWS V14.01,2013-05-04 06:34:00,
2013-05-04 01:39:00,30.2,9.4,27.52,NNW,338,3.6,4.0,41,0.00,,---,0.00,VWS V14.01,2013-05-04 06:39:00,
2013-05-04 01:44:00,29.8,9.0,27.52,NW,325,3.1,4.0,41,0.00,,---,0.00,VWS V14.01,2013-05-04 06:44:00,
2013-05-04 01:50:00,29.1,8.4,27.52,NNW,335,4.0,4.0,41,0.00,,---,0.00,VWS V14.01,2013-05-04 06:50:00,
2013-05-04 01:55:00,28.6,7.9,27.52,NNW,336,3.6,3.6,41,0.00,,---,0.00,VWS V14.01,2013-05-04 06:55:00,
2013-05-04 02:00:00,28.6,7.9,27.52,NNW,346,3.6,4.0,41,0.00,,---,0.00,VWS V14.01,2013-05-04 07:00:00,
2013-05-04 02:05:00,28.9,8.2,27.52,NNW,335,4.0,4.0,41,0.00,,---,0.00,VWS V14.01,2013-05-04 07:05:00,
2013-05-04 02:10:00,29.7,8.9,27.52,NNW,340,4.0,4.0,41,0.00,,---,0.00,VWS V14.01,2013-05-04 07:10:00,
2013-05-04 02:15:00,30.0,9.2,27.52,NNW,340,4.9,4.9,41,0.00,,---,0.00,VWS V14.01,2013-05-04 07:15:00,
2013-05-04 02:20:00,30.0,9.2,27.52,NNW,344,4.0,4.9,41,0.00,,---,0.00,VWS V14.01,2013-05-04 07:20:00,
2013-05-04 02:25:00,30.0,9.2,27.52,NNW,348,4.0,4.0,41,0.00,,---,0.00,VWS V14.01,2013-05-04 07:25:00,
2013-05-04 02:30:00,30.2,9.4,27.52,North,353,4.5,5.4,41,0.00,,---,0.00,VWS V14.01,2013-05-04 07:30:00,
2013-05-04 02:35:00,30.2,9.4,27.52,North,353,4.5,4.5,41,0.00,,---,0.00,VWS V14.01,2013-05-04 07:35:00,
2013-05-04 02:40:00,29.1,8.4,27.52,North,353,3.6,3.6,41,0.00,,---,0.00,VWS V14.01,2013-05-04 07:40:00,
2013-05-04 02:45:00,28.9,8.2,27.52,NNW,348,4.0,4.0,41,0.00,,---,0.00,VWS V14.01,2013-05-04 07:45:00,
2013-05-04 02:50:00,28.8,8.0,27.52,NNW,338,3.6,4.0,41,0.00,,---,0.00,VWS V14.01,2013-05-04 07:50:00,
2013-05-04 02:55:00,29.1,8.4,27.52,North,353,4.0,4.0,41,0.00,,---,0.00,VWS V14.01,2013-05-04 07:55:00,
2013-05-04 03:00:00,29.5,8.7,27.49,North,353,5.4,5.4,41,0.00,,---,0.00,VWS V14.01,2013-05-04 08:00:00,
2013-05-04 03:05:00,29.5,8.7,27.49,North,0,4.9,4.9,41,0.00,,---,0.00,VWS V14.01,2013-05-04 08:05:00,
2013-05-04 03:10:00,29.1,8.4,27.49,North,0,3.1,4.0,41,0.00,,---,0.00,VWS V14.01,2013-05-04 08:10:00,
2013-05-04 03:15:00,28.9,8.2,27.49,North,0,4.0,4.0,41,0.00,,---,0.00,VWS V14.01,2013-05-04 08:15:00,
2013-05-04 03:20:00,28.8,8.0,27.49,North,0,3.6,4.0,41,0.00,,---,0.00,VWS V14.01,2013-05-04 08:20:00,
2013-05-04 03:25:00,28.2,7.6,27.49,North,0,3.6,3.6,41,0.00,,---,0.00,VWS V14.01,2013-05-04 08:25:00,
2013-05-04 03:30:00,27.7,7.1,27.49,NNW,346,3.1,4.0,41,0.00,,---,0.00,VWS V14.01,2013-05-04 08:30:00,
2013-05-04 03:35:00,28.8,8.0,27.49,NNW,329,3.6,3.6,41,0.00,,---,0.00,VWS V14.01,2013-05-04 08:35:00,
2013-05-04 03:40:00,28.4,7.7,27.49,West,281,4.9,5.4,41,0.00,,---,0.00,VWS V14.01,2013-05-04 08:40:00,
2013-05-04 03:45:00,26.1,6.1,27.49,WNW,303,3.6,4.0,42,0.00,,---,0.00,VWS V14.01,2013-05-04 08:45:00,
2013-05-04 03:50:00,26.1,6.1,27.49,NW,319,3.1,4.0,42,0.00,,---,0.00,VWS V14.01,2013-05-04 08:50:00,
2013-05-04 03:55:00,26.1,6.1,27.49,NNW,335,3.6,3.6,42,0.00,,---,0.00,VWS V14.01,2013-05-04 08:55:00,
2013-05-04 04:01:00,26.8,6.2,27.49,NNW,333,4.9,4.9,41,0.00,,---,0.00,VWS V14.01,2013-05-04 09:01:00,
2013-05-04 04:07:00,26.8,6.2,27.49,NW,305,4.0,4.0,41,0.00,,---,0.00,VWS V14.01,2013-05-04 09:07:00,
2013-05-04 04:12:00,26.6,6.6,27.49,NW,322,3.1,3.6,42,0.00,,---,0.00,VWS V14.01,2013-05-04 09:12:00,
2013-05-04 04:17:00,26.4,6.4,27.49,NW,323,3.6,3.6,42,0.00,,---,0.00,VWS V14.01,2013-05-04 09:17:00,
2013-05-04 04:22:00,25.3,5.5,27.49,NNW,340,2.7,2.7,42,0.00,,---,0.00,VWS V14.01,2013-05-04 09:22:00,
2013-05-04 04:27:00,25.3,5.5,27.49,NNW,337,2.7,2.7,42,0.00,,---,0.00,VWS V14.01,2013-05-04 09:27:00,
2013-05-04 04:32:00,25.5,5.6,27.49,NNW,337,3.1,4.0,42,0.00,,---,0.00,VWS V14.01,2013-05-04 09:32:00,
2013-05-04 04:37:00,25.3,5.5,27.49,NNW,337,3.6,3.6,42,0.00,,---,0.00,VWS V14.01,2013-05-04 09:37:00,
2013-05-04 04:42:00,25.0,5.1,27.49,NNW,335,3.1,3.1,42,0.00,,---,0.00,VWS V14.01,2013-05-04 09:42:00,
2013-05-04 04:47:00,25.0,5.1,27.52,NNW,339,3.1,3.1,42,0.00,,---,0.00,VWS V14.01,2013-05-04 09:47:00,
2013-05-04 04:53:00,25.9,6.0,27.52,NNW,344,2.7,3.6,42,0.00,,---,0.00,VWS V14.01,2013-05-04 09:53:00,
2013-05-04 04:58:00,26.6,6.6,27.49,North,349,6.3,6.3,42,0.00,,---,0.00,VWS V14.01,2013-05-04 09:58:00,
2013-05-04 05:03:00,28.2,7.6,27.49,NW,323,6.3,6.3,41,0.00,,---,0.00,VWS V14.01,2013-05-04 10:03:00,
2013-05-04 05:08:00,28.2,7.6,27.49,NNW,342,5.4,5.4,41,0.00,,---,0.00,VWS V14.01,2013-05-04 10:08:00,
2013-05-04 05:13:00,27.9,7.2,27.52,NNW,329,5.8,5.8,41,0.00,,---,0.00,VWS V14.01,2013-05-04 10:13:00,
2013-05-04 05:18:00,27.9,7.2,27.52,NNW,329,4.0,4.9,41,0.00,,---,0.00,VWS V14.01,2013-05-04 10:18:00,
2013-05-04 05:23:00,27.1,6.6,27.52,North,353,2.7,2.7,41,0.00,,---,0.00,VWS V14.01,2013-05-04 10:23:00,
2013-05-04 05:28:00,27.0,6.4,27.52,NNW,341,3.6,3.6,41,0.00,,---,0.00,VWS V14.01,2013-05-04 10:28:00,
2013-05-04 05:33:00,27.1,6.6,27.52,NNW,337,4.0,4.9,41,0.00,,---,0.00,VWS V14.01,2013-05-04 10:33:00,
2013-05-04 05:38:00,27.5,6.9,27.52,NNW,328,4.0,4.0,41,0.00,,---,0.00,VWS V14.01,2013-05-04 10:38:00,
2013-05-04 05:43:00,27.7,7.1,27.52,WNW,292,4.0,4.0,41,0.00,,---,0.00,VWS V14.01,2013-05-04 10:43:00,
2013-05-04 05:48:00,26.2,6.3,27.52,SW,236,3.1,3.1,42,0.00,,---,0.00,VWS V14.01,2013-05-04 10:48:00,
2013-05-04 05:53:00,24.6,4.8,27.52,SW,235,0.0,2.2,42,0.00,,---,0.00,VWS V14.01,2013-05-04 10:53:00,
2013-05-04 05:58:00,24.3,4.5,27.52,SW,230,2.7,2.7,42,0.00,,---,0.00,VWS V14.01,2013-05-04 10:58:00,
2013-05-04 06:03:00,24.1,4.3,27.52,SW,234,0.0,0.0,42,0.00,,---,0.00,VWS V14.01,2013-05-04 11:03:00,
2013-05-04 06:09:00,23.7,4.0,27.52,SW,235,0.0,0.0,42,0.00,,---,0.00,VWS V14.01,2013-05-04 11:09:00,
2013-05-04 06:14:00,23.5,3.8,27.52,WNW,283,0.0,2.7,42,0.00,,---,0.00,VWS V14.01,2013-05-04 11:14:00,
2013-05-04 06:19:00,23.9,4.2,27.52,WNW,283,3.6,3.6,42,0.00,,---,0.00,VWS V14.01,2013-05-04 11:19:00,
2013-05-04 06:24:00,23.5,3.8,27.52,WNW,283,0.0,0.0,42,0.00,,---,0.00,VWS V14.01,2013-05-04 11:24:00,
2013-05-04 06:29:00,23.9,4.2,27.52,WNW,283,2.7,4.0,42,0.00,,---,0.00,VWS V14.01,2013-05-04 11:29:00,
2013-05-04 06:34:00,24.8,5.0,27.52,WNW,284,4.0,4.0,42,0.00,,---,0.00,VWS V14.01,2013-05-04 11:34:00,
2013-05-04 06:39:00,25.0,5.1,27.52,West,281,2.7,3.1,42,0.00,,---,0.00,VWS V14.01,2013-05-04 11:39:00,
2013-05-04 06:45:00,25.0,5.1,27.52,WNW,285,2.7,3.1,42,0.00,,---,0.00,VWS V14.01,2013-05-04 11:45:00,
2013-05-04 06:50:00,25.2,5.3,27.52,WNW,283,3.1,3.1,42,0.00,,---,0.00,VWS V14.01,2013-05-04 11:50:00,
2013-05-04 06:56:00,25.3,5.5,27.52,WNW,284,0.0,2.2,42,0.00,,---,0.00,VWS V14.01,2013-05-04 11:56:00,
2013-05-04 07:01:00,25.3,5.5,27.52,WNW,284,0.0,4.9,42,0.00,,---,0.00,VWS V14.01,2013-05-04 12:01:00,
2013-05-04 07:07:00,25.7,5.8,27.52,WNW,284,2.7,3.1,42,0.00,,---,0.00,VWS V14.01,2013-05-04 12:07:00,
2013-05-04 07:12:00,26.6,6.6,27.52,WNW,284,3.6,3.6,42,0.00,,---,0.00,VWS V14.01,2013-05-04 12:12:00,
2013-05-04 07:17:00,27.3,6.7,27.52,WNW,291,5.4,5.4,41,0.00,,---,0.00,VWS V14.01,2013-05-04 12:17:00,
2013-05-04 07:22:00,28.4,7.7,27.52,WNW,289,6.3,6.3,41,0.00,,---,0.00,VWS V14.01,2013-05-04 12:22:00,
2013-05-04 07:27:00,29.1,8.4,27.52,WNW,293,2.7,4.9,41,0.00,,---,0.00,VWS V14.01,2013-05-04 12:27:00,
2013-05-04 07:32:00,30.4,9.0,27.52,WNW,286,5.8,5.8,40,0.00,,---,0.00,VWS V14.01,2013-05-04 12:32:00,
2013-05-04 07:37:00,31.3,9.8,27.52,WNW,290,3.1,5.4,40,0.00,,---,0.00,VWS V14.01,2013-05-04 12:37:00,
2013-05-04 07:42:00,32.4,10.8,27.52,WNW,296,3.6,3.6,40,0.00,,---,0.00,VWS V14.01,2013-05-04 12:42:00,
2013-05-04 07:47:00,35.8,13.8,27.52,North,0,3.6,4.5,40,0.00,,---,0.00,VWS V14.01,2013-05-04 12:47:00,
2013-05-04 07:52:00,35.6,13.7,27.52,NW,317,4.0,6.3,40,0.00,,---,0.00,VWS V14.01,2013-05-04 12:52:00,
2013-05-04 07:57:00,36.7,14.6,27.52,NW,312,5.4,5.4,40,0.00,,---,0.00,VWS V14.01,2013-05-04 12:57:00,
2013-05-04 08:02:00,38.1,15.4,27.52,NNW,346,5.4,6.3,39,0.00,,---,0.00,VWS V14.01,2013-05-04 13:02:00,
2013-05-04 08:04:00,37.8,15.0,27.52,NNW,334,5.8,5.8,39,0.00,,---,0.00,VWS V14.01,2013-05-04 13:04:00,
2013-05-04 08:09:00,38.7,15.9,27.52,NNW,341,6.3,8.1,39,0.00,,---,0.00,VWS V14.01,2013-05-04 13:09:00,
2013-05-04 08:14:00,39.2,16.3,27.52,NNW,337,6.3,8.7,39,0.00,,---,0.00,VWS V14.01,2013-05-04 13:14:00,
2013-05-04 08:19:00,39.9,17.0,27.52,NNW,332,8.1,8.1,39,0.00,,---,0.00,VWS V14.01,2013-05-04 13:19:00,
2013-05-04 08:24:00,40.3,17.3,27.52,North,0,7.6,8.1,39,0.00,,---,0.00,VWS V14.01,2013-05-04 13:24:00,
2013-05-04 08:29:00,40.3,17.3,27.52,North,0,7.6,7.6,39,0.00,,---,0.00,VWS V14.01,2013-05-04 13:29:00,
2013-05-04 08:34:00,40.8,17.8,27.52,NNW,331,6.3,6.3,39,0.00,,---,0.00,VWS V14.01,2013-05-04 13:34:00,
2013-05-04 08:39:00,40.5,17.5,27.52,North,0,8.3,8.3,39,0.00,,---,0.00,VWS V14.01,2013-05-04 13:39:00,
2013-05-04 08:44:00,40.8,17.8,27.52,NNW,346,5.8,6.3,39,0.00,,---,0.00,VWS V14.01,2013-05-04 13:44:00,
2013-05-04 08:49:00,41.5,17.8,27.52,North,0,7.6,7.6,38,0.00,,---,0.00,VWS V14.01,2013-05-04 13:49:00,
2013-05-04 08:54:00,41.5,17.8,27.52,North,353,5.8,6.3,38,0.00,,---,0.00,VWS V14.01,2013-05-04 13:54:00,
2013-05-04 09:00:00,42.3,18.5,27.52,North,0,8.3,8.3,38,0.00,,---,0.00,VWS V14.01,2013-05-04 14:00:00,
2013-05-04 09:05:00,42.8,19.0,27.52,North,357,7.6,8.1,38,0.00,,---,0.00,VWS V14.01,2013-05-04 14:05:00,
2013-05-04 09:10:00,43.9,19.9,27.52,North,353,10.1,10.1,38,0.00,,---,0.00,VWS V14.01,2013-05-04 14:10:00,
2013-05-04 09:15:00,44.4,20.4,27.52,North,0,11.0,12.3,38,0.00,,---,0.00,VWS V14.01,2013-05-04 14:15:00,
2013-05-04 09:20:00,44.6,20.6,27.52,North,2,9.6,12.3,38,0.00,,---,0.00,VWS V14.01,2013-05-04 14:20:00,
2013-05-04 09:25:00,45.5,21.4,27.52,North,5,9.2,10.1,38,0.00,,---,0.00,VWS V14.01,2013-05-04 14:25:00,
2013-05-04 09:30:00,46.8,21.9,27.52,North,357,8.7,8.7,37,0.00,,---,0.00,VWS V14.01,2013-05-04 14:30:00,
2013-05-04 09:35:00,47.3,22.4,27.52,North,353,8.1,10.5,37,0.00,,---,0.00,VWS V14.01,2013-05-04 14:35:00,
2013-05-04 09:40:00,47.1,22.2,27.52,North,357,10.5,10.5,37,0.00,,---,0.00,VWS V14.01,2013-05-04 14:40:00,
2013-05-04 09:45:00,45.1,21.1,27.52,North,1,8.7,8.7,38,0.00,,---,0.00,VWS V14.01,2013-05-04 14:45:00,
2013-05-04 09:50:00,47.1,22.2,27.52,North,0,6.3,8.7,37,0.00,,---,0.00,VWS V14.01,2013-05-04 14:50:00,
2013-05-04 09:55:00,47.3,22.4,27.52,North,357,8.7,8.7,37,0.00,,---,0.00,VWS V14.01,2013-05-04 14:55:00,
2013-05-04 10:00:00,48.4,23.3,27.52,North,353,10.5,10.5,37,0.00,,---,0.00,VWS V14.01,2013-05-04 15:00:00,
2013-05-04 10:05:00,48.4,23.3,27.52,North,353,5.8,8.1,37,0.00,,---,0.00,VWS V14.01,2013-05-04 15:05:00,
2013-05-04 10:10:00,48.6,23.5,27.52,North,357,11.0,11.0,37,0.00,,---,0.00,VWS V14.01,2013-05-04 15:10:00,
2013-05-04 10:15:00,49.6,24.5,27.52,NNW,333,10.5,11.4,37,0.00,,---,0.00,VWS V14.01,2013-05-04 15:15:00,
2013-05-04 10:20:00,50.5,24.6,27.52,North,0,8.1,8.1,36,0.00,,---,0.00,VWS V14.01,2013-05-04 15:20:00,
2013-05-04 10:25:00,50.2,24.3,27.52,NNW,343,7.6,7.6,36,0.00,,---,0.00,VWS V14.01,2013-05-04 15:25:00,
2013-05-04 10:30:00,50.4,24.4,27.52,North,357,8.3,8.3,36,0.00,,---,0.00,VWS V14.01,2013-05-04 15:30:00,
2013-05-04 10:35:00,50.4,24.4,27.52,North,0,10.5,10.5,36,0.00,,---,0.00,VWS V14.01,2013-05-04 15:35:00,
2013-05-04 10:40:00,50.2,24.3,27.52,North,0,8.7,9.6,36,0.00,,---,0.00,VWS V14.01,2013-05-04 15:40:00,
2013-05-04 10:45:00,50.2,24.3,27.52,North,0,10.5,10.5,36,0.00,,---,0.00,VWS V14.01,2013-05-04 15:45:00,
2013-05-04 10:50:00,52.2,26.0,27.52,NW,325,8.3,8.3,36,0.00,,---,0.00,VWS V14.01,2013-05-04 15:50:00,
2013-05-04 10:55:00,51.1,25.1,27.52,North,0,8.7,10.1,36,0.00,,---,0.00,VWS V14.01,2013-05-04 15:55:00,
2013-05-04 11:00:00,50.5,24.6,27.52,NNW,343,11.0,11.0,36,0.00,,---,0.00,VWS V14.01,2013-05-04 16:00:00,
2013-05-04 11:05:00,50.7,24.8,27.52,North,0,10.1,10.1,36,0.00,,---,0.00,VWS V14.01,2013-05-04 16:05:00,
2013-05-04 11:10:00,51.1,25.1,27.52,North,3,10.1,10.1,36,0.00,,---,0.00,VWS V14.01,2013-05-04 16:10:00,
2013-05-04 11:15:00,52.2,26.0,27.52,North,0,6.7,10.1,36,0.00,,---,0.00,VWS V14.01,2013-05-04 16:15:00,
2013-05-04 11:20:00,51.1,25.1,27.52,North,11,12.8,12.8,36,0.00,,---,0.00,VWS V14.01,2013-05-04 16:20:00,
2013-05-04 11:25:00,51.4,25.4,27.52,North,10,10.1,10.5,36,0.00,,---,0.00,VWS V14.01,2013-05-04 16:25:00,
2013-05-04 11:30:00,52.3,26.2,27.52,North,0,8.7,10.5,36,0.00,,---,0.00,VWS V14.01,2013-05-04 16:30:00,
2013-05-04 11:35:00,53.2,27.0,27.52,North,353,7.6,7.6,36,0.00,,---,0.00,VWS V14.01,2013-05-04 16:35:00,
2013-05-04 11:40:00,52.9,26.7,27.52,NNW,342,8.1,8.1,36,0.00,,---,0.00,VWS V14.01,2013-05-04 16:40:00,
2013-05-04 11:45:00,51.6,25.6,27.52,North,353,5.8,8.1,36,0.00,,---,0.00,VWS V14.01,2013-05-04 16:45:00,
2013-05-04 11:50:00,52.0,25.9,27.52,NNE,24,8.3,11.0,36,0.00,,---,0.00,VWS V14.01,2013-05-04 16:50:00,
2013-05-04 11:55:00,53.6,27.3,27.52,NNW,344,8.1,10.5,36,0.00,,---,0.00,VWS V14.01,2013-05-04 16:55:00,
2013-05-04 12:00:00,52.5,26.4,27.52,NNW,333,13.6,13.6,36,0.00,,---,0.00,VWS V14.01,2013-05-04 17:00:00,
2013-05-04 12:05:00,54.5,28.1,27.52,North,0,7.6,8.1,36,0.00,,---,0.00,VWS V14.01,2013-05-04 17:05:00,
2013-05-04 12:10:00,54.7,28.3,27.52,North,0,11.0,11.0,36,0.00,,---,0.00,VWS V14.01,2013-05-04 17:10:00,
2013-05-04 12:15:00,52.7,26.5,27.52,North,353,8.3,8.3,36,0.00,,---,0.00,VWS V14.01,2013-05-04 17:15:00,
2013-05-04 12:20:00,53.1,26.8,27.52,North,0,7.6,8.3,36,0.00,,---,0.00,VWS V14.01,2013-05-04 17:20:00,
2013-05-04 12:25:00,53.2,27.0,27.52,North,353,7.6,8.7,36,0.00,,---,0.00,VWS V14.01,2013-05-04 17:25:00,
2013-05-04 12:30:00,55.0,28.6,27.52,North,357,7.6,10.5,36,0.00,,---,0.00,VWS V14.01,2013-05-04 17:30:00,
2013-05-04 12:35:00,53.6,27.3,27.52,NNW,344,11.0,11.0,36,0.00,,---,0.00,VWS V14.01,2013-05-04 17:35:00,
2013-05-04 12:40:00,52.5,26.4,27.52,NNW,333,10.5,10.5,36,0.00,,---,0.00,VWS V14.01,2013-05-04 17:40:00,
2013-05-04 12:45:00,52.2,26.0,27.52,NW,325,12.8,12.8,36,0.00,,---,0.00,VWS V14.01,2013-05-04 17:45:00,
2013-05-04 12:50:00,53.6,27.3,27.52,NNW,343,8.7,8.7,36,0.00,,---,0.00,VWS V14.01,2013-05-04 17:50:00,
2013-05-04 12:55:00,53.2,27.0,27.52,North,4,8.3,8.3,36,0.00,,---,0.00,VWS V14.01,2013-05-04 17:55:00,
2013-05-04 13:00:00,54.0,27.6,27.52,North,353,9.6,11.0,36,0.00,,---,0.00,VWS V14.01,2013-05-04 18:00:00,
2013-05-04 13:05:00,56.3,29.0,27.52,North,3,10.1,10.1,35,0.00,,---,0.00,VWS V14.01,2013-05-04 18:05:00,
2013-05-04 13:10:00,56.1,28.9,27.52,NNW,341,8.1,8.1,35,0.00,,---,0.00,VWS V14.01,2013-05-04 18:10:00,
2013-05-04 13:15:00,56.5,29.2,27.52,NNW,338,10.5,10.5,35,0.00,,---,0.00,VWS V14.01,2013-05-04 18:15:00,
2013-05-04 13:20:00,54.9,28.4,27.52,North,11,8.7,11.0,36,0.00,,---,0.00,VWS V14.01,2013-05-04 18:20:00,
2013-05-04 13:25:00,54.7,28.3,27.52,North,0,11.0,11.0,36,0.00,,---,0.00,VWS V14.01,2013-05-04 18:25:00,
2013-05-04 13:30:00,55.9,28.7,27.52,NNW,343,8.1,11.0,35,0.00,,---,0.00,VWS V14.01,2013-05-04 18:30:00,
2013-05-04 13:35:00,55.9,28.7,27.52,North,5,11.0,11.0,35,0.00,,---,0.00,VWS V14.01,2013-05-04 18:35:00,
2013-05-04 13:40:00,56.1,28.9,27.52,NNW,345,10.5,14.5,35,0.00,,---,0.00,VWS V14.01,2013-05-04 18:40:00,
2013-05-04 13:45:00,55.8,28.5,27.49,North,0,5.8,7.6,35,0.00,,---,0.00,VWS V14.01,2013-05-04 18:45:00,
2013-05-04 13:50:00,55.4,28.2,27.49,North,353,8.1,8.7,35,0.00,,---,0.00,VWS V14.01,2013-05-04 18:50:00,
2013-05-04 13:55:00,55.4,28.2,27.49,NNE,15,7.6,8.3,35,0.00,,---,0.00,VWS V14.01,2013-05-04 18:55:00,
2013-05-04 14:00:00,55.0,28.6,27.49,North,357,8.3,11.0,36,0.00,,---,0.00,VWS V14.01,2013-05-04 19:00:00,
2013-05-04 14:05:00,54.5,28.1,27.49,North,0,11.0,12.8,36,0.00,,---,0.00,VWS V14.01,2013-05-04 19:05:00,
2013-05-04 14:10:00,55.2,28.8,27.49,North,9,10.1,11.0,36,0.00,,---,0.00,VWS V14.01,2013-05-04 19:10:00,
2013-05-04 14:15:00,55.2,28.8,27.49,North,2,8.7,8.7,36,0.00,,---,0.00,VWS V14.01,2013-05-04 19:15:00,
2013-05-04 14:20:00,54.5,28.1,27.49,North,0,8.7,10.5,36,0.00,,---,0.00,VWS V14.01,2013-05-04 19:20:00,
2013-05-04 14:25:00,54.9,28.4,27.49,North,2,5.4,8.7,36,0.00,,---,0.00,VWS V14.01,2013-05-04 19:25:00,
2013-05-04 14:30:00,54.7,28.3,27.49,NNE,14,10.1,10.1,36,0.00,,---,0.00,VWS V14.01,2013-05-04 19:30:00,
2013-05-04 14:35:00,55.2,28.8,27.49,North,7,9.6,11.0,36,0.00,,---,0.00,VWS V14.01,2013-05-04 19:35:00,
2013-05-04 14:40:00,54.9,28.4,27.49,North,353,12.3,12.3,36,0.00,,---,0.00,VWS V14.01,2013-05-04 19:40:00,
2013-05-04 14:45:00,57.0,29.7,27.49,North,353,10.5,10.5,35,0.00,,---,0.00,VWS V14.01,2013-05-04 19:45:00,
2013-05-04 14:50:00,58.1,30.6,27.49,North,9,7.6,9.2,35,0.00,,---,0.00,VWS V14.01,2013-05-04 19:50:00,
2013-05-04 14:55:00,57.4,30.0,27.49,North,5,11.0,11.0,35,0.00,,---,0.00,VWS V14.01,2013-05-04 19:55:00,
2013-05-04 15:00:00,58.1,30.6,27.49,North,349,7.6,8.7,35,0.00,,---,0.00,VWS V14.01,2013-05-04 20:00:00,
2013-05-04 15:05:00,57.6,30.1,27.49,NNE,12,8.7,8.7,35,0.00,,---,0.00,VWS V14.01,2013-05-04 20:05:00,
2013-05-04 15:10:00,57.2,29.8,27.49,North,5,7.6,8.7,35,0.00,,---,0.00,VWS V14.01,2013-05-04 20:10:00,
2013-05-04 15:15:00,57.0,29.7,27.49,NNE,16,8.1,10.1,35,0.00,,---,0.00,VWS V14.01,2013-05-04 20:15:00,
2013-05-04 15:20:00,57.6,30.1,27.49,North,10,8.1,8.7,35,0.00,,---,0.00,VWS V14.01,2013-05-04 20:20:00,
2013-05-04 15:25:00,55.4,28.2,27.49,North,0,11.0,11.0,35,0.00,,---,0.00,VWS V14.01,2013-05-04 20:25:00,
2013-05-04 15:30:00,55.6,28.4,27.49,North,0,13.2,13.2,35,0.00,,---,0.00,VWS V14.01,2013-05-04 20:30:00,
2013-05-04 15:35:00,55.6,28.4,27.49,North,4,8.1,11.0,35,0.00,,---,0.00,VWS V14.01,2013-05-04 20:35:00,
2013-05-04 15:40:00,55.6,28.4,27.49,North,10,8.7,10.1,35,0.00,,---,0.00,VWS V14.01,2013-05-04 20:40:00,
2013-05-04 15:45:00,55.6,28.4,27.52,North,2,7.6,10.1,35,0.00,,---,0.00,VWS V14.01,2013-05-04 20:45:00,
2013-05-04 15:50:00,55.4,28.2,27.52,North,357,7.6,10.1,35,0.00,,---,0.00,VWS V14.01,2013-05-04 20:50:00,
2013-05-04 15:55:00,54.5,28.1,27.52,North,0,8.3,8.3,36,0.00,,---,0.00,VWS V14.01,2013-05-04 20:55:00,
2013-05-04 16:00:00,53.8,27.5,27.52,NNW,337,5.8,8.7,36,0.00,,---,0.00,VWS V14.01,2013-05-04 21:00:00,
2013-05-04 16:06:00,53.6,27.3,27.52,NNE,13,6.3,7.6,36,0.00,,---,0.00,VWS V14.01,2013-05-04 21:06:00,
2013-05-04 16:11:00,53.6,27.3,27.52,North,8,6.3,6.3,36,0.00,,---,0.00,VWS V14.01,2013-05-04 21:11:00,
2013-05-04 16:16:00,53.6,27.3,27.52,North,357,10.1,10.1,36,0.00,,---,0.00,VWS V14.01,2013-05-04 21:16:00,
2013-05-04 16:21:00,53.6,27.3,27.52,North,0,7.6,7.6,36,0.00,,---,0.00,VWS V14.01,2013-05-04 21:21:00,
2013-05-04 16:26:00,53.2,27.0,27.52,NNE,12,7.6,8.7,36,0.00,,---,0.00,VWS V14.01,2013-05-04 21:26:00,
2013-05-04 16:31:00,52.7,26.5,27.52,NNE,13,8.1,8.3,36,0.00,,---,0.00,VWS V14.01,2013-05-04 21:31:00,
2013-05-04 16:36:00,53.4,27.1,27.52,North,353,8.3,8.3,36,0.00,,---,0.00,VWS V14.01,2013-05-04 21:36:00,
2013-05-04 16:41:00,53.4,27.1,27.52,North,0,8.7,8.7,36,0.00,,---,0.00,VWS V14.01,2013-05-04 21:41:00,
2013-05-04 16:46:00,54.1,27.8,27.49,North,6,8.3,8.3,36,0.00,,---,0.00,VWS V14.01,2013-05-04 21:46:00,
2013-05-04 16:51:00,53.4,27.1,27.49,North,2,8.3,8.7,36,0.00,,---,0.00,VWS V14.01,2013-05-04 21:51:00,
2013-05-04 16:56:00,52.9,26.7,27.49,North,357,10.1,10.1,36,0.00,,---,0.00,VWS V14.01,2013-05-04 21:56:00,
2013-05-04 17:01:00,53.4,27.1,27.49,NNE,13,8.7,8.7,36,0.00,,---,0.00,VWS V14.01,2013-05-04 22:01:00,
2013-05-04 17:06:00,53.2,27.0,27.49,North,2,10.1,10.1,36,0.00,,---,0.00,VWS V14.01,2013-05-04 22:06:00,
2013-05-04 17:11:00,52.7,26.5,27.49,North,4,8.3,8.7,36,0.00,,---,0.00,VWS V14.01,2013-05-04 22:11:00,
2013-05-04 17:16:00,52.9,26.7,27.52,North,353,8.1,8.3,36,0.00,,---,0.00,VWS V14.01,2013-05-04 22:16:00,
2013-05-04 17:21:00,52.7,26.5,27.52,North,2,8.7,8.7,36,0.00,,---,0.00,VWS V14.01,2013-05-04 22:21:00,
2013-05-04 17:26:00,52.5,26.4,27.52,North,3,7.2,10.1,36,0.00,,---,0.00,VWS V14.01,2013-05-04 22:26:00,
2013-05-04 17:31:00,52.3,26.2,27.52,NNE,16,5.4,5.8,36,0.00,,---,0.00,VWS V14.01,2013-05-04 22:31:00,
2013-05-04 17:36:00,52.2,26.0,27.52,North,1,8.1,9.2,36,0.00,,---,0.00,VWS V14.01,2013-05-04 22:36:00,
2013-05-04 17:41:00,52.2,26.0,27.52,North,1,8.3,8.3,36,0.00,,---,0.00,VWS V14.01,2013-05-04 22:41:00,
2013-05-04 17:46:00,52.2,26.0,27.52,North,6,8.3,8.3,36,0.00,,---,0.00,VWS V14.01,2013-05-04 22:46:00,
2013-05-04 17:51:00,51.8,25.7,27.52,North,357,10.1,11.0,36,0.00,,---,0.00,VWS V14.01,2013-05-04 22:51:00,
2013-05-04 17:56:00,52.3,26.2,27.52,North,5,8.1,8.3,36,0.00,,---,0.00,VWS V14.01,2013-05-04 22:56:00,
2013-05-04 18:01:00,52.9,26.7,27.52,North,357,8.7,8.7,36,0.00,,---,0.00,VWS V14.01,2013-05-04 23:01:00,
2013-05-04 18:06:00,53.1,26.8,27.52,North,4,8.3,9.6,36,0.00,,---,0.00,VWS V14.01,2013-05-04 23:06:00,
2013-05-04 18:11:00,53.1,26.8,27.52,NNE,17,8.3,8.3,36,0.00,,---,0.00,VWS V14.01,2013-05-04 23:11:00,
2013-05-04 18:16:00,53.4,27.1,27.52,NNE,22,6.7,8.1,36,0.00,,---,0.00,VWS V14.01,2013-05-04 23:16:00,
2013-05-04 18:21:00,53.4,27.1,27.52,North,2,7.6,8.1,36,0.00,,---,0.00,VWS V14.01,2013-05-04 23:21:00,
2013-05-04 18:26:00,53.2,27.0,27.52,North,9,8.1,8.7,36,0.00,,---,0.00,VWS V14.01,2013-05-04 23:26:00,
2013-05-04 18:31:00,53.1,26.8,27.52,North,0,6.3,7.6,36,0.00,,---,0.00,VWS V14.01,2013-05-04 23:31:00,
2013-05-04 18:36:00,52.7,26.5,27.52,North,6,7.6,7.6,36,0.00,,---,0.00,VWS V14.01,2013-05-04 23:36:00,
2013-05-04 18:42:00,52.3,26.2,27.52,North,10,6.3,7.6,36,0.00,,---,0.00,VWS V14.01,2013-05-04 23:42:00,
2013-05-04 18:47:00,52.5,26.4,27.52,North,7,5.8,5.8,36,0.00,,---,0.00,VWS V14.01,2013-05-04 23:47:00,
2013-05-04 18:52:00,52.3,26.2,27.52,NNE,12,7.2,7.2,36,0.00,,---,0.00,VWS V14.01,2013-05-04 23:52:00,
2013-05-04 18:57:00,52.2,26.0,27.52,NNE,28,5.8,5.8,36,0.00,,---,0.00,VWS V14.01,2013-05-04 23:57:00,
2013-05-04 19:02:00,51.8,25.7,27.52,North,6,8.7,8.7,36,0.00,,---,0.00,VWS V14.01,2013-05-05 00:02:00,
2013-05-04 19:07:00,51.6,25.6,27.52,North,9,8.1,8.1,36,0.00,,---,0.00,VWS V14.01,2013-05-05 00:07:00,
2013-05-04 19:12:00,51.6,25.6,27.52,NNE,12,8.1,8.1,36,0.00,,---,0.00,VWS V14.01,2013-05-05 00:12:00,
2013-05-04 19:17:00,51.4,25.4,27.52,North,7,5.8,6.7,36,0.00,,---,0.00,VWS V14.01,2013-05-05 00:17:00,
2013-05-04 19:23:00,51.4,25.4,27.52,North,10,6.3,8.1,36,0.00,,---,0.00,VWS V14.01,2013-05-05 00:23:00,
2013-05-04 19:28:00,51.3,25.2,27.52,North,10,5.8,6.3,36,0.00,,---,0.00,VWS V14.01,2013-05-05 00:28:00,
2013-05-04 19:33:00,50.9,24.9,27.52,North,9,5.4,5.4,36,0.00,,---,0.00,VWS V14.01,2013-05-05 00:33:00,
2013-05-04 19:38:00,50.9,24.9,27.52,North,8,7.6,7.6,36,0.00,,---,0.00,VWS V14.01,2013-05-05 00:38:00,
2013-05-04 19:43:00,50.9,24.9,27.52,North,9,5.8,6.3,36,0.00,,---,0.00,VWS V14.01,2013-05-05 00:43:00,
2013-05-04 19:48:00,50.7,24.8,27.52,North,10,6.3,6.3,36,0.00,,---,0.00,VWS V14.01,2013-05-05 00:48:00,
2013-05-04 19:53:00,50.4,24.4,27.52,NNE,12,5.4,8.3,36,0.00,,---,0.00,VWS V14.01,2013-05-05 00:53:00,
2013-05-04 19:58:00,50.2,24.3,27.52,North,11,8.1,8.1,36,0.00,,---,0.00,VWS V14.01,2013-05-05 00:58:00,
2013-05-04 20:03:00,50.0,24.1,27.52,North,3,5.4,6.7,36,0.00,,---,0.00,VWS V14.01,2013-05-05 01:03:00,
2013-05-04 20:08:00,49.6,24.5,27.52,North,10,5.8,6.3,37,0.00,,---,0.00,VWS V14.01,2013-05-05 01:08:00,
2013-05-04 20:13:00,49.5,24.3,27.52,NNE,17,5.4,5.4,37,0.00,,---,0.00,VWS V14.01,2013-05-05 01:13:00,
2013-05-04 20:18:00,48.9,23.8,27.52,NNE,13,4.5,4.9,37,0.00,,---,0.00,VWS V14.01,2013-05-05 01:18:00,
2013-05-04 20:23:00,48.4,23.3,27.52,NNE,13,6.3,6.3,37,0.00,,---,0.00,VWS V14.01,2013-05-05 01:23:00,
2013-05-04 20:28:00,47.8,22.9,27.52,NNE,25,4.5,4.9,37,0.00,,---,0.00,VWS V14.01,2013-05-05 01:28:00,
2013-05-04 20:33:00,47.3,22.4,27.52,North,7,4.9,4.9,37,0.00,,---,0.00,VWS V14.01,2013-05-05 01:33:00,
2013-05-04 20:38:00,47.3,22.4,27.52,North,9,5.4,5.4,37,0.00,,---,0.00,VWS V14.01,2013-05-05 01:38:00,
2013-05-04 20:43:00,46.8,21.9,27.55,North,6,4.0,5.4,37,0.00,,---,0.00,VWS V14.01,2013-05-05 01:43:00,
2013-05-04 20:48:00,46.4,21.6,27.55,North,8,5.4,5.4,37,0.00,,---,0.00,VWS V14.01,2013-05-05 01:48:00,
2013-05-04 20:53:00,46.0,21.9,27.55,North,9,5.4,5.4,38,0.00,,---,0.00,VWS V14.01,2013-05-05 01:53:00,
2013-05-04 20:58:00,45.5,21.4,27.55,North,9,5.4,5.4,38,0.00,,---,0.00,VWS V14.01,2013-05-05 01:58:00,
2013-05-04 21:03:00,45.5,21.4,27.55,North,7,4.9,4.9,38,0.00,,---,0.00,VWS V14.01,2013-05-05 02:03:00,
2013-05-04 21:08:00,45.3,21.2,27.55,North,7,4.0,4.0,38,0.00,,---,0.00,VWS V14.01,2013-05-05 02:08:00,
2013-05-04 21:13:00,45.0,20.9,27.55,North,7,4.0,4.0,38,0.00,,---,0.00,VWS V14.01,2013-05-05 02:13:00,
2013-05-04 21:18:00,45.0,20.9,27.55,North,7,2.7,3.6,38,0.00,,---,0.00,VWS V14.01,2013-05-05 02:18:00,
2013-05-04 21:23:00,45.1,21.1,27.55,North,2,3.1,4.0,38,0.00,,---,0.00,VWS V14.01,2013-05-05 02:23:00,
2013-05-04 21:29:00,45.5,21.4,27.55,North,2,4.5,4.5,38,0.00,,---,0.00,VWS V14.01,2013-05-05 02:29:00,
2013-05-04 21:34:00,45.7,21.5,27.55,North,2,4.0,4.0,38,0.00,,---,0.00,VWS V14.01,2013-05-05 02:34:00,
2013-05-04 21:39:00,45.7,21.5,27.55,North,0,4.5,4.5,38,0.00,,---,0.00,VWS V14.01,2013-05-05 02:39:00,
2013-05-04 21:44:00,45.9,21.7,27.55,North,10,4.0,4.0,38,0.00,,---,0.00,VWS V14.01,2013-05-05 02:44:00,
2013-05-04 21:49:00,45.9,21.7,27.55,North,10,4.0,4.0,38,0.00,,---,0.00,VWS V14.01,2013-05-05 02:49:00,
2013-05-04 21:54:00,45.7,21.5,27.55,NNE,14,4.0,4.0,38,0.00,,---,0.00,VWS V14.01,2013-05-05 02:54:00,
2013-05-04 21:59:00,45.7,21.5,27.55,NNE,16,3.6,4.0,38,0.00,,---,0.00,VWS V14.01,2013-05-05 02:59:00,
2013-05-04 22:04:00,45.5,21.4,27.58,NNE,15,3.6,3.6,38,0.00,,---,0.00,VWS V14.01,2013-05-05 03:04:00,
2013-05-04 22:09:00,45.5,21.4,27.58,NNE,15,2.7,4.0,38,0.00,,---,0.00,VWS V14.01,2013-05-05 03:09:00,
2013-05-04 22:14:00,45.5,21.4,27.58,North,6,3.1,4.0,38,0.00,,---,0.00,VWS V14.01,2013-05-05 03:14:00,
2013-05-04 22:19:00,45.3,21.2,27.58,North,9,3.6,4.0,38,0.00,,---,0.00,VWS V14.01,2013-05-05 03:19:00,
2013-05-04 22:24:00,45.5,21.4,27.58,North,10,4.5,4.5,38,0.00,,---,0.00,VWS V14.01,2013-05-05 03:24:00,
2013-05-04 22:29:00,45.3,21.2,27.58,North,5,4.0,4.0,38,0.00,,---,0.00,VWS V14.01,2013-05-05 03:29:00,
2013-05-04 22:34:00,45.3,21.2,27.58,North,1,3.1,4.0,38,0.00,,---,0.00,VWS V14.01,2013-05-05 03:34:00,
2013-05-04 22:39:00,45.1,21.1,27.58,North,0,3.6,4.0,38,0.00,,---,0.00,VWS V14.01,2013-05-05 03:39:00,
2013-05-04 22:44:00,44.8,20.7,27.58,North,0,3.6,4.0,38,0.00,,---,0.00,VWS V14.01,2013-05-05 03:44:00,
2013-05-04 22:49:00,44.6,20.6,27.58,North,0,3.6,3.6,38,0.00,,---,0.00,VWS V14.01,2013-05-05 03:49:00,
2013-05-04 22:54:00,44.4,20.4,27.58,North,0,3.6,4.0,38,0.00,,---,0.00,VWS V14.01,2013-05-05 03:54:00,
2013-05-04 22:59:00,44.4,20.4,27.58,North,353,3.6,3.6,38,0.00,,---,0.00,VWS V14.01,2013-05-05 03:59:00,
2013-05-04 23:01:00,44.4,20.4,27.58,NNW,341,3.6,3.6,38,0.00,,---,0.00,VWS V14.01,2013-05-05 04:01:00,
2013-05-04 23:06:00,44.4,20.4,27.58,North,353,4.0,4.0,38,0.00,,---,0.00,VWS V14.01,2013-05-05 04:06:00,
2013-05-04 23:11:00,44.4,20.4,27.58,North,353,3.1,4.0,38,0.00,,---,0.00,VWS V14.01,2013-05-05 04:11:00,
2013-05-04 23:16:00,44.2,20.3,27.58,NNW,340,4.0,4.0,38,0.00,,---,0.00,VWS V14.01,2013-05-05 04:16:00,
2013-05-04 23:21:00,44.2,20.3,27.58,NNW,335,3.6,3.6,38,0.00,,---,0.00,VWS V14.01,2013-05-05 04:21:00,
2013-05-04 23:26:00,44.2,20.3,27.58,NNW,341,3.6,3.6,38,0.00,,---,0.00,VWS V14.01,2013-05-05 04:26:00,
2013-05-04 23:31:00,44.1,20.1,27.58,NNW,341,3.1,3.6,38,0.00,,---,0.00,VWS V14.01,2013-05-05 04:31:00,
2013-05-04 23:36:00,43.7,19.8,27.58,NNW,341,3.1,3.1,38,0.00,,---,0.00,VWS V14.01,2013-05-05 04:36:00,
2013-05-04 23:41:00,43.5,19.6,27.58,NNW,341,3.1,3.1,38,0.00,,---,0.00,VWS V14.01,2013-05-05 04:41:00,
2013-05-04 23:46:00,43.2,19.3,27.58,North,5,3.1,3.1,38,0.00,,---,0.00,VWS V14.01,2013-05-05 04:46:00,
2013-05-04 23:52:00,42.8,19.0,27.58,North,5,3.1,3.1,38,0.00,,---,0.00,VWS V14.01,2013-05-05 04:52:00,
2013-05-04 23:57:00,42.4,18.6,27.58,North,0,3.6,4.0,38,0.00,,---,0.00,VWS V14.01,2013-05-05 04:57:00,